Weather History for Worcester, MA

Change the Weather History Date:

Tuesday, September 17, 2013

  Actual Average Record
Temperature  
Mean Temperature 50 °F 61 °F  
Max Temperature 59 °F 69 °F 89 °F (1942)
Min Temperature 41 °F 53 °F 35 °F (1935)
Degree Days  
Heating Degree Days 15 5  
Month to date heating degree days 74 56  
Since 1 July heating degree days 93 95  
Cooling Degree Days 0 1  
Month to date cooling degree days 40 33  
Year to date cooling degree days 571 459  
Moisture  
Dew Point 35 °F    
Average Humidity 62    
Maximum Humidity 83    
Minimum Humidity 40    
Precipitation  
Precipitation 0.00 in 0.13 in 1.69 in (1933)
Month to date precipitation 2.73 2.03  
Year to date precipitation 35.75 33.39  
Sea Level Pressure  
Sea Level Pressure 30.37 in    
Wind  
Wind Speed 8 mph (North)    
Max Wind Speed 15 mph    
Max Gust Speed 19 mph    
Visibility 10 miles    
Events      
T = Trace of Precipitation, MM = Missing Value Source: NWS Daily Summary

Daily Weather History Graph

Daily Weather History Graph

Search for Another Location

Airport:

Trip Planner

Search our weather history database for the weather conditions in past years. The results will help you decide how hot, cold, wet, or windy it might be!

Date:

Astronomy

Sep. 17, 2013 Rise Set
Actual Time 6:29 AM EDT 6:53 PM EDT
Civil Twilight 6:01 AM EDT 7:21 PM EDT
Nautical Twilight 5:28 AM EDT 7:54 PM EDT
Astronomical Twilight 4:54 AM EDT 8:28 PM EDT
Moon 5:39 PM EDT (9/17) 4:19 AM EDT (9/17)
Length of Visible Light 13h 19m
Length of Day
12h 23m
Waxing Gibbous, 96% of the Moon is Illuminated
Sep 17
Waxing Gibbous
Sep 19
Full
Sep 26
Last Quarter
Oct 4
New
Oct 11
First Quarter

Hourly Weather History & Observations

Time (EDT) Temp. Windchill Dew Point Humidity Pressure Visibility Wind Dir Wind Speed Gust Speed Precip Events Conditions
12:54 AM 42.1 °F 35.7 °F 33.1 °F 70% 30.28 in 10.0 mi North 11.5 mph 19.6 mph N/A   Clear
1:54 AM 42.1 °F 35.2 °F 32.0 °F 67% 30.30 in 10.0 mi North 12.7 mph - N/A   Clear
2:54 AM 41.0 °F 33.9 °F 32.0 °F 70% 30.31 in 10.0 mi North 12.7 mph - N/A   Clear
3:54 AM 41.0 °F 34.7 °F 32.0 °F 70% 30.32 in 10.0 mi North 10.4 mph - N/A   Clear
4:54 AM 41.0 °F 34.3 °F 30.9 °F 67% 30.32 in 10.0 mi North 11.5 mph - N/A   Clear
5:54 AM 41.0 °F 35.2 °F 30.9 °F 67% 30.35 in 10.0 mi North 9.2 mph - N/A   Clear
6:54 AM 42.1 °F 37.1 °F 32.0 °F 67% 30.38 in 10.0 mi North 8.1 mph - N/A   Clear
7:54 AM 45.0 °F 39.7 °F 32.0 °F 60% 30.39 in 10.0 mi NNE 10.4 mph - N/A   Clear
8:54 AM 48.0 °F - 33.1 °F 56% 30.42 in 10.0 mi NNE 8.1 mph - N/A   Clear
9:54 AM 50.0 °F - 33.1 °F 52% 30.43 in 10.0 mi NNE 9.2 mph - N/A   Clear
10:54 AM 52.0 °F - 33.1 °F 49% 30.44 in 10.0 mi NE 10.4 mph - N/A   Clear
11:54 AM 54.0 °F - 33.1 °F 45% 30.43 in 10.0 mi North 8.1 mph 18.4 mph N/A   Clear
12:54 PM 55.0 °F - 33.1 °F 43% 30.43 in 10.0 mi NNE 13.8 mph - N/A   Clear
1:54 PM 57.0 °F - 34.0 °F 42% 30.41 in 10.0 mi ENE 9.2 mph 18.4 mph N/A   Clear
2:54 PM 57.0 °F - 35.1 °F 44% 30.39 in 10.0 mi NE 10.4 mph - N/A   Clear
3:54 PM 57.9 °F - 35.1 °F 42% 30.38 in 10.0 mi NNW 3.5 mph - N/A   Clear
4:54 PM 57.9 °F - 37.0 °F 46% 30.37 in 10.0 mi NE 3.5 mph - N/A   Clear
5:54 PM 57.9 °F - 36.0 °F 44% 30.37 in 10.0 mi NE 3.5 mph - N/A   Clear
6:54 PM 55.0 °F - 39.9 °F 57% 30.36 in 10.0 mi Calm Calm - N/A   Clear
7:54 PM 52.0 °F - 39.0 °F 61% 30.36 in 10.0 mi Calm Calm - N/A   Clear
8:54 PM 50.0 °F - 39.0 °F 66% 30.36 in 10.0 mi West 6.9 mph - N/A   Clear
9:54 PM 45.0 °F 41.8 °F 39.9 °F 82% 30.36 in 10.0 mi West 5.8 mph - N/A   Clear
10:54 PM 46.9 °F - 39.9 °F 77% 30.36 in 10.0 mi West 6.9 mph - N/A   Clear
11:54 PM 45.0 °F 41.2 °F 39.9 °F 82% 30.35 in 10.0 mi WNW 6.9 mph - N/A   Clear